Flag for U.S.A. Weather past 2 weeks in Metlakatla, Alaska, U.S.A.

Now
45 °F

Overcast.


Feels Like: 38 °F
Forecast: 43 / 48 °F
Wind: 15 mph from Southeast

Location: Metlakatla - Metlakatla Seaplane Base

Current Time: Apr 26, 2015 at 11:43:35 AM

Latest Report: Apr 26, 2015 at 7:56 AM


Visibility: 8 mi

Pressure: 29.75 "Hg

Humidity: 76%

Dew point: 37 °F

Location of MetlakatlaLocation

Historic Weather in Metlakatla — Graph

°F

Metlakatla temperature yesterday

Maximum temperature yesterday: 54 °F (at 4:16 PM)
Minimum temperature yesterday: 43 °F (at 5:56 AM)
Average temperature yesterday: 48 °F

Past Weeks' High & Low Weather Summary

 TemperatureHumidityPressure
High54 °F (Apr 24, 5:56 PM)100% (Apr 12, 9:56 PM)30.52 "Hg (Apr 12, 9:56 PM)
Low34 °F (Apr 12, 9:56 PM)43% (Apr 22, 3:56 PM)29.33 "Hg (Apr 13, 2:16 PM)
Average44 °F75%29.98 "Hg
* Reported Apr 11 7:16 AM — Apr 26 7:56 AM, Metlakatla, Weather by CustomWeather, © 2015

Note: Actual official high and low records may vary slightly from our data, if they occured in-between our weather recording intervals... More about our weather records

Advertising

Metlakatla weather history for previous 24 hours

 ConditionsComfort  
Time TempWeatherWind HumidityBarometerVisibility
7:56 AM
Sun, Apr 26
45 °FOvercast.15 mph76%29.75 "Hg8 mi
7:36 AM45 °FOvercast.14 mph76%29.75 "Hg6 mi
7:16 AM45 °FMostly cloudy.15 mph71%29.75 "Hg8 mi
6:56 AM45 °FMostly cloudy.18 mph71%29.74 "Hg5 mi
6:36 AM46 °FMostly cloudy.22 mph66%29.74 "Hg9 mi
6:16 AM46 °FCloudy.23 mph66%29.74 "Hg10 mi
5:56 AM48 °FMostly cloudy.16 mph62%29.74 "Hg9 mi
5:36 AM52 °FMostly cloudy.17 mph47%29.74 "Hg10 mi
5:16 AM52 °FMostly cloudy.18 mph47%29.74 "Hg10 mi
4:56 AM52 °FOvercast.18 mph44%29.74 "Hg10 mi
4:36 AM52 °FMostly cloudy.16 mph47%29.77 "Hg10 mi
4:16 AM52 °FMostly cloudy.10 mph50%29.77 "Hg10 mi
3:56 AM52 °FOvercast.13 mph50%29.77 "Hg10 mi
3:36 AM52 °FOvercast.15 mph47%29.78 "Hg10 mi
3:16 AM52 °FOvercast.15 mph44%29.80 "Hg10 mi
2:56 AM52 °FMostly cloudy.12 mph44%29.80 "Hg10 mi
2:36 AM52 °FPassing clouds.16 mph44%29.80 "Hg10 mi
2:16 AM52 °FPassing clouds.12 mph50%29.82 "Hg10 mi
1:56 AM52 °FPartly cloudy.9 mph50%29.82 "Hg10 mi
1:36 AM52 °FPassing clouds.10 mph50%29.83 "Hg10 mi
1:16 AM48 °FPassing clouds.8 mph71%29.83 "Hg10 mi
12:56 AM48 °FPassing clouds.6 mph71%29.84 "Hg10 mi
12:36 AM48 °FPassing clouds.9 mph66%29.84 "Hg10 mi
12:16 AM50 °FPartly cloudy.9 mph62%29.85 "Hg10 mi
11:56 PM
Sat, Apr 25
48 °FPassing clouds.10 mph66%29.84 "Hg10 mi
11:36 PM48 °FPassing clouds.8 mph71%29.84 "Hg10 mi
11:16 PM48 °FPassing clouds.9 mph71%29.85 "Hg10 mi
10:56 PM48 °FPassing clouds.6 mph76%29.85 "Hg10 mi
10:36 PM48 °FOvercast.9 mph71%29.86 "Hg10 mi
10:16 PM48 °FOvercast.9 mph71%29.86 "Hg10 mi
9:56 PM48 °FMostly cloudy.7 mph71%29.86 "Hg10 mi
9:36 PM50 °FMostly cloudy.10 mph67%29.86 "Hg10 mi
9:16 PM50 °FMostly cloudy.9 mph67%29.87 "Hg10 mi
8:56 PM50 °FBroken clouds.7 mph67%29.86 "Hg10 mi
8:36 PM48 °FScattered clouds.13 mph71%29.86 "Hg10 mi
8:16 PM48 °FScattered clouds.13 mph71%29.87 "Hg10 mi
7:16 PM50 °FPartly sunny.10 mph62%29.89 "Hg10 mi
6:56 PM50 °FPassing clouds.8 mph62%29.89 "Hg10 mi
6:36 PM52 °FScattered clouds.6 mph58%29.89 "Hg10 mi
6:16 PM52 °FPartly sunny.9 mph58%29.89 "Hg10 mi
5:56 PM52 °FPartly sunny.10 mph58%29.89 "Hg10 mi
5:36 PM54 °FScattered clouds.10 mph54%29.89 "Hg10 mi
5:16 PM54 °FSunny.7 mph58%29.90 "Hg10 mi
4:16 PM54 °FSunny.8 mph58%29.90 "Hg10 mi
3:56 PM52 °FSunny.14 mph62%29.91 "Hg10 mi
2:56 PM52 °FSunny.14 mph67%29.92 "Hg10 mi
2:36 PM52 °FSunny.10 mph62%29.92 "Hg10 mi
2:16 PM52 °FSunny.12 mph62%29.93 "Hg10 mi
1:16 PM52 °FPartly sunny.15 mph62%29.94 "Hg10 mi
12:56 PM52 °FOvercast.6 mph62%29.95 "Hg10 mi
12:36 PM52 °FMostly cloudy.6 mph62%29.94 "Hg10 mi
12:16 PM52 °FMostly cloudy.5 mph58%29.95 "Hg10 mi
11:56 AM52 °FOvercast.6 mph62%29.95 "Hg10 mi
11:36 AM50 °FOvercast.3 mph67%29.95 "Hg10 mi
11:16 AM48 °FOvercast.3 mph71%29.96 "Hg10 mi
Weather by CustomWeather, © 2015

See weather overviewHow to use our weather pages